Location: Poughquag
(41.6090°N, 73.6820°W)
Time: 05:09:38
(UTC-04:00)

ISS - Visible Passes

Search period start: 03 April 2020 00:00
Search period end: 13 April 2020 00:00
Orbit: 418 x 423 km, 51.6° (Epoch: 03 April)

Date Brightness Start Highest point End Pass type
(mag) Time Alt. Az. Time Alt. Az. Time Alt. Az.
03 Apr -2.9 21:16:14 10° WNW 21:19:18 43° SW 21:19:18 43° SW visible
04 Apr -3.7 20:28:58 10° WNW 20:32:20 76° SW 20:34:15 23° SE visible
05 Apr -1.3 21:19:37 10° W 21:21:39 15° SW 21:22:16 15° SW visible
06 Apr -1.9 20:31:48 10° WNW 20:34:38 25° SW 20:37:21 10° S visible
